Location: Plainartige
(45.6866°N, 1.7993°E)
Time: 03:13:07
(UTC+00:00)

RS-15 - Pass Details

Date: 29 June 2022
Orbit: 1881 x 2163 km, 64.8° (Epoch: 10 August)

Event Time Altitude Azimuth Distance (km) Brightness Sun altitude
Rises 22:06:02 0° 317° (NW) 5,690 11.9 -16.7°
Reaches altitude 10° 22:09:43 10° 322° (NW) 4,691 11.3 -17.0°
Maximum altitude 22:21:47 52° 38° (NE) 2,546 8.8 -17.8°
Drops below altitude 10° 22:33:28 10° 113° (ESE) 4,577 9.6 -18.6°
Enters shadow 22:34:55 - 116° (ESE) 4,968 9.7 -18.7°
